[[{"header":{"parameterUnit":"m.s-1","parameterCategory":1,"la1":30.2991,"la2":30.254,"lo1":-89.0895,"lo2":-89.0444,"dy":0.0017,"dx":0.0017,"nx":28,"ny":28,"refTime":"2024-04-18T03:00:00:Z","depth":0,"parameterNumber":2,"parameterNumberName":"U-component_of_WINDS"},"data":[0,0,0,0,0,0,0,0,0,0,0,0,0,0,0,0,0,0,0,0,0,0,0,0,0,0,0,0,0,0,0,0,0,0,0,0,0,0,0,0,0,0,0,0,0,0,0,0,0,0,0,0,0,0,0,0,0,0,-1.3156,-1.3156,0,-1.3072,-1.3071,-1.3071,-1.3016,-1.3016,-1.3016,-1.3015,-1.293,-1.2928,-1.2926,0,0,0,0,0,0,0,0,0,0,0,0,0,-1.3271,-1.3269,-1.3156,-1.3155,-1.3154,-1.3073,-1.3071,-1.307,-1.3017,-1.3016,-1.3016,-1.3015,-1.293,-1.2928,-1.2926,0,0,0,0,0,0,0,0,0,0,0,0,0,-1.3207,-1.3268,-1.3157,-1.3118,-1.3113,-1.3073,-1.3071,-1.307,-1.3017,-1.3016,-1.3016,-1.3015,-1.2931,-1.2928,-1.2925,-1.2917,0,0,-1.2916,-1.2915,0,0,0,0,0,0,0,0,-1.3211,-1.3203,-1.3124,-1.312,-1.3115,-1.3054,-1.308,-1.3019,-1.3017,-1.3053,-1.3015,-1.3015,-1.2972,-1.2965,-1.2951,-1.2913,-1.2909,-1.2916,-1.2914,-1.2913,-1.2912,0,0,0,0,0,0,0,-1.3215,-1.3207,-1.3123,-1.3123,-1.3118,-1.3104,-1.3095,-1.3068,-1.3016,-1.305,-1.3046,-1.3037,-1.2969,-1.2954,-1.2948,-1.2908,-1.2916,-1.2914,-1.2912,-1.2911,-1.286,-1.286,0,0,0,0,0,0,-1.3226,-1.3211,-1.3126,-1.3121,-1.3163,-1.3103,-1.3092,-1.3074,-1.3016,-1.3007,-1.3037,-1.3035,-1.2959,-1.2952,-1.2945,-1.2931,-1.2913,-1.291,-1.2909,-1.2859,-1.286,-1.286,0,0,0,0,0,0,-1.3229,-1.3219,-1.3129,-1.3164,-1.3152,-1.3101,-1.3082,-1.3073,-1.3058,-1.3007,-1.2997,-1.3031,-1.2958,-1.2949,-1.2924,-1.2928,-1.2909,-1.2906,-1.2859,-1.2859,-1.286,-1.2904,0,0,0,0,0,0,-1.3232,-1.322,-1.3216,-1.3165,-1.315,-1.311,-1.3082,-1.3072,-1.3053,-1.3048,-1.2998,-1.299,-1.2957,-1.2929,-1.2922,-1.2923,-1.2904,-1.2858,-1.2859,-1.286,-1.2902,-1.2906,-1.291,0,0,0,0,0,-1.3236,-1.3232,-1.3216,-1.3207,-1.3145,-1.311,-1.3102,-1.3065,-1.3053,-1.3049,-1.3016,-1.2991,-1.2929,-1.2927,-1.2918,-1.2919,-1.2858,-1.2859,-1.286,-1.29,-1.2905,-1.2909,0,0,0,0,0,0,-1.3285,-1.3225,-1.3207,-1.3186,-1.3154,-1.3101,-1.3095,-1.3071,-1.3042,-1.3039,-1.2994,-1.2983,-1.2963,-1.2938,-1.2938,-1.2908,-1.289,-1.289,-1.2924,-1.2929,-1.2932,-1.2938,-1.2901,0,0,0,0,0,-1.3294,-1.3271,-1.3219,-1.3206,-1.3191,-1.3146,-1.3129,-1.3103,-1.3068,-1.3055,-1.302,-1.2987,-1.296,-1.2943,-1.2915,-1.2899,-1.2887,-1.2895,-1.2899,-1.2902,-1.2901,-1.2891,-1.2894,-1.2863,-1.2863,-1.2863,0,0,-1.3311,-1.3275,-1.3263,-1.3215,-1.3187,-1.3164,-1.3135,-1.3112,-1.3095,-1.3051,-1.3025,-1.2999,-1.296,-1.2939,-1.2928,-1.2918,-1.2907,-1.2903,-1.2906,-1.2904,-1.2892,-1.2895,-1.2897,-1.2864,-1.2864,-1.2864,0,0,-1.333,-1.3301,-1.3286,-1.3259,-1.3217,-1.3187,-1.3184,-1.3135,-1.3116,-1.309,-1.3057,-1.3036,-1.299,-1.2963,-1.2943,-1.2954,-1.2929,-1.2946,-1.2965,-1.2955,-1.2958,-1.2959,-1.2963,-1.2964,-1.2946,-1.2946,-1.2946,0,-1.3357,-1.3321,-1.3282,-1.3261,-1.3241,-1.3201,-1.3185,-1.3161,-1.3112,-1.3099,-1.3089,-1.303,-1.3001,-1.2973,-1.2976,-1.2961,-1.2956,-1.2951,-1.296,-1.2962,-1.2963,-1.2966,-1.2967,-1.2948,-1.2948,-1.2948,-1.2947,0,-1.3356,-1.3332,-1.3325,-1.3279,-1.3258,-1.324,-1.3198,-1.3182,-1.3158,-1.313,-1.3103,-1.3067,-1.3031,-1.3022,-1.2999,-1.2991,-1.2986,-1.2969,-1.295,-1.2969,-1.297,-1.2971,-1.2951,-1.295,-1.295,-1.2949,0,0,-1.3403,-1.3336,-1.3334,-1.3313,-1.3264,-1.3244,-1.3225,-1.319,-1.3177,-1.3145,-1.3127,-1.309,-1.3073,-1.3051,-1.3024,-1.3016,-1.3026,-1.2999,-1.2997,-1.3005,-1.3015,-1.3028,-1.303,-1.301,-1.301,-1.301,-1.3018,0,-1.3415,-1.3378,-1.3342,-1.3318,-1.3295,-1.3257,-1.324,-1.3208,-1.3181,-1.3158,-1.3128,-1.3102,-1.3083,-1.3069,-1.3059,-1.3027,-1.3027,-1.3026,-1.2993,-1.2992,-1.3003,-1.3031,-1.3044,-1.3054,-1.3019,-1.3019,-1.3019,0,-1.3423,-1.3393,-1.3367,-1.332,-1.3309,-1.3295,-1.3259,-1.3238,-1.3202,-1.3182,-1.3158,-1.313,-1.3108,-1.3092,-1.3061,-1.3061,-1.3046,-1.3028,-1.3028,-1.3023,-1.3006,-1.3026,-1.3056,-1.3058,-1.3019,-1.3019,-1.3019,0,-1.346,-1.3413,-1.3391,-1.3374,-1.3319,-1.331,-1.3286,-1.3249,-1.3231,-1.32,-1.3187,-1.3155,-1.3137,-1.3113,-1.3077,-1.3069,-1.305,-1.3031,-1.3033,-1.3034,-1.303,-1.3031,-1.3058,-1.3021,-1.3021,-1.3021,-1.3021,0,-1.3476,-1.3462,-1.3406,-1.3393,-1.3375,-1.3334,-1.3318,-1.3292,-1.3259,-1.324,-1.3205,-1.3188,-1.3141,-1.3119,-1.309,-1.3069,-1.3061,-1.3045,-1.3038,-1.3048,-1.305,-1.3037,-1.3035,-1.3022,-1.3022,-1.3022,-1.3022,0,-1.3514,-1.3476,-1.345,-1.34,-1.3388,-1.3377,-1.3334,-1.332,-1.3291,-1.3267,-1.3259,-1.3214,-1.3186,-1.3147,-1.3107,-1.3088,-1.307,-1.3059,-1.3082,-1.3078,-1.3082,-1.3082,-1.3101,-1.3101,-1.3066,-1.3066,-1.3066,0,-1.3527,-1.3514,-1.3464,-1.3448,-1.3426,-1.3402,-1.3382,-1.3342,-1.3323,-1.3281,-1.3272,-1.3241,-1.3213,-1.3169,-1.3133,-1.3102,-1.309,-1.3098,-1.3085,-1.3095,-1.3089,-1.309,-1.3088,-1.3102,-1.3102,-1.3103,-1.3103,0,-1.3553,-1.3535,-1.3509,-1.3476,-1.3453,-1.3426,-1.3396,-1.3386,-1.3339,-1.332,-1.329,-1.3269,-1.3228,-1.3197,-1.3162,-1.3138,-1.3113,-1.3108,-1.3107,-1.3116,-1.313,-1.3122,-1.3091,-1.3107,-1.3107,-1.3107,-1.3106,-1.3106,-1.3578,-1.3565,-1.3528,-1.3499,-1.3473,-1.3446,-1.343,-1.34,-1.3374,-1.3337,-1.3315,-1.3286,-1.325,-1.32,-1.3177,-1.3154,-1.3144,-1.3143,-1.3142,-1.3142,-1.3145,-1.3135,-1.3148,-1.3148,-1.3147,-1.3147,-1.3147,0,-1.3602,-1.3576,-1.355,-1.351,-1.3488,-1.3467,-1.3433,-1.3416,-1.3391,-1.3359,-1.3333,-1.3299,-1.327,-1.3232,-1.3199,-1.3188,-1.3176,-1.3181,-1.3181,-1.3176,-1.3156,-1.316,-1.3192,-1.3192,-1.3192,-1.3192,-1.3192,-1.3191,-1.3612,-1.3589,-1.3567,-1.3531,-1.3505,-1.3476,-1.3459,-1.3434,-1.3409,-1.3373,-1.3348,-1.3323,-1.3289,-1.3254,-1.3226,-1.3215,-1.3205,-1.3213,-1.3199,-1.3181,-1.3177,-1.3174,-1.3177,-1.3211,-1.3211,-1.3221,-1.3221,-1.3221]},{"header":{"parameterUnit":"m.s-1","parameterCategory":1,"la1":30.2991,"la2":30.254,"lo1":-89.0895,"lo2":-89.0444,"dy":0.0017,"dx":0.0017,"nx":28,"ny":28,"refTime":"2024-04-18T03:00:00:Z","depth":0,"parameterNumber":3,"parameterNumberName":"V-component_of_WINDS"},"data":[0,0,0,0,0,0,0,0,0,0,0,0,0,0,0,0,0,0,0,0,0,0,0,0,0,0,0,0,0,0,0,0,0,0,0,0,0,0,0,0,0,0,0,0,0,0,0,0,0,0,0,0,0,0,0,0,0,0,1.8234,1.8233,0,1.816,1.8159,1.8158,1.812,1.812,1.812,1.812,1.8038,1.8036,1.8034,0,0,0,0,0,0,0,0,0,0,0,0,0,1.8337,1.8335,1.8234,1.8233,1.8232,1.816,1.8159,1.8158,1.812,1.812,1.812,1.812,1.8039,1.8036,1.8033,0,0,0,0,0,0,0,0,0,0,0,0,0,1.828,1.8334,1.8234,1.8204,1.8201,1.816,1.8159,1.8157,1.812,1.812,1.812,1.812,1.8039,1.8036,1.8033,1.8014,0,0,1.8023,1.8022,0,0,0,0,0,0,0,0,1.8283,1.8276,1.821,1.8206,1.8203,1.8149,1.8165,1.8109,1.812,1.8151,1.812,1.812,1.8074,1.8068,1.8054,1.801,1.8006,1.8023,1.8021,1.802,1.8019,0,0,0,0,0,0,0,1.8287,1.8279,1.8204,1.8209,1.8204,1.8193,1.8185,1.8154,1.8113,1.8148,1.8145,1.8137,1.8072,1.8058,1.8052,1.8005,1.8023,1.802,1.8018,1.8017,1.7941,1.7941,0,0,0,0,0,0,1.8297,1.8283,1.8206,1.8202,1.8244,1.8191,1.8182,1.8166,1.8114,1.8106,1.8137,1.8136,1.8063,1.8056,1.8049,1.8023,1.802,1.8016,1.8015,1.7941,1.7941,1.7941,0,0,0,0,0,0,1.8299,1.829,1.8209,1.8242,1.823,1.819,1.8172,1.8165,1.815,1.8106,1.8098,1.813,1.8063,1.8054,1.8023,1.802,1.8015,1.8012,1.7941,1.7941,1.7941,1.7972,0,0,0,0,0,0,1.8302,1.8291,1.8285,1.8242,1.8229,1.8187,1.8172,1.8163,1.8145,1.8142,1.8097,1.8089,1.8062,1.8028,1.802,1.8015,1.801,1.7941,1.7941,1.7941,1.7971,1.7972,1.7974,0,0,0,0,0,1.8306,1.8295,1.8285,1.8276,1.822,1.8187,1.8179,1.815,1.8145,1.8137,1.8109,1.809,1.8022,1.8026,1.8016,1.801,1.7941,1.7941,1.7941,1.797,1.7972,1.7974,0,0,0,0,0,0,1.8336,1.8289,1.8277,1.8252,1.8224,1.818,1.817,1.8153,1.8125,1.8123,1.8086,1.8076,1.8049,1.8026,1.8032,1.7989,1.798,1.7977,1.8005,1.8007,1.8008,1.8014,1.8007,0,0,0,0,0,1.8341,1.8319,1.8278,1.826,1.8247,1.8211,1.8195,1.8176,1.8144,1.8131,1.8101,1.8069,1.804,1.8022,1.7993,1.7967,1.7956,1.7958,1.796,1.7962,1.796,1.7945,1.7945,1.794,1.794,1.794,0,0,1.8348,1.8319,1.8308,1.8265,1.8241,1.8218,1.8201,1.8177,1.8159,1.8127,1.8097,1.8074,1.8036,1.8008,1.7994,1.7988,1.7959,1.7962,1.7963,1.7961,1.7945,1.7945,1.7946,1.794,1.794,1.794,0,0,1.835,1.8327,1.831,1.8286,1.8251,1.8228,1.8224,1.8183,1.8167,1.8137,1.8112,1.8089,1.8041,1.8015,1.7996,1.7989,1.7971,1.7981,1.799,1.7975,1.7975,1.7975,1.7973,1.7973,1.7979,1.7979,1.798,0,1.8364,1.833,1.8302,1.828,1.8262,1.8234,1.8216,1.8194,1.815,1.8137,1.8132,1.8071,1.8043,1.8009,1.8008,1.7993,1.7986,1.7986,1.7978,1.7978,1.7977,1.7975,1.7974,1.7981,1.7981,1.7981,1.798,0,1.8348,1.8325,1.8315,1.8277,1.8257,1.8237,1.8204,1.8187,1.817,1.8146,1.8116,1.8082,1.8046,1.8037,1.8018,1.8,1.7997,1.7985,1.7975,1.798,1.7977,1.7976,1.7983,1.7983,1.7982,1.7982,0,0,1.8367,1.8314,1.8311,1.8293,1.8253,1.8233,1.8212,1.8179,1.8165,1.8136,1.8116,1.8076,1.8065,1.8043,1.8021,1.8009,1.8006,1.7998,1.7997,1.8001,1.7984,1.7993,1.7992,1.7994,1.7994,1.7993,1.7987,0,1.8363,1.8326,1.83,1.8271,1.8249,1.8223,1.8204,1.8176,1.8154,1.813,1.8104,1.8077,1.8065,1.8052,1.8038,1.801,1.8002,1.801,1.7974,1.7973,1.7984,1.7991,1.8,1.7996,1.7985,1.7985,1.7985,0,1.8354,1.8329,1.8299,1.8261,1.8251,1.8235,1.8203,1.8182,1.8149,1.8134,1.811,1.8088,1.8063,1.8055,1.8019,1.8025,1.8008,1.7992,1.7991,1.7986,1.7979,1.7986,1.7993,1.7993,1.7983,1.7983,1.7983,0,1.8371,1.8328,1.8305,1.8291,1.8247,1.8236,1.8217,1.8184,1.8167,1.8138,1.8126,1.8094,1.8076,1.8051,1.8021,1.8018,1.7987,1.7977,1.7972,1.7973,1.7967,1.7968,1.7972,1.7956,1.7957,1.7957,1.7957,0,1.837,1.8352,1.8313,1.8298,1.8278,1.8248,1.8228,1.8206,1.8178,1.8157,1.8132,1.8113,1.8074,1.805,1.8025,1.7999,1.7991,1.7977,1.797,1.7979,1.7981,1.7967,1.7967,1.7956,1.7956,1.7956,1.7956,0,1.8385,1.8358,1.8331,1.8292,1.8282,1.8268,1.8234,1.8218,1.8195,1.817,1.8162,1.8125,1.8095,1.8063,1.8022,1.8005,1.798,1.7971,1.7992,1.7988,1.7985,1.7986,1.7981,1.7979,1.7966,1.7966,1.7966,0,1.8386,1.8372,1.8333,1.8319,1.8301,1.8278,1.8261,1.823,1.8213,1.8176,1.8164,1.8133,1.8107,1.806,1.8028,1.7996,1.7986,1.7987,1.7981,1.7991,1.7986,1.7988,1.7986,1.7988,1.7989,1.7989,1.7989,0,1.839,1.8378,1.8355,1.8327,1.8308,1.8284,1.8259,1.8248,1.8212,1.8194,1.8165,1.8145,1.8104,1.8073,1.8038,1.8015,1.7996,1.7991,1.7989,1.7997,1.801,1.8003,1.7996,1.7991,1.7991,1.7991,1.7991,1.7991,1.8398,1.8385,1.8356,1.8331,1.831,1.8287,1.8271,1.8247,1.8223,1.8189,1.8172,1.8143,1.8111,1.8062,1.804,1.8016,1.801,1.8005,1.8004,1.8004,1.8006,1.8014,1.8009,1.8009,1.8009,1.8009,1.8009,0,1.8402,1.8382,1.836,1.8327,1.8307,1.8294,1.8265,1.8249,1.8225,1.8197,1.8173,1.8139,1.8109,1.8076,1.8043,1.803,1.8021,1.8023,1.8023,1.8018,1.8014,1.8019,1.8031,1.8031,1.8031,1.8031,1.8031,1.8031,1.8401,1.8379,1.8363,1.833,1.8309,1.8283,1.8268,1.8247,1.8225,1.8189,1.8166,1.8145,1.8114,1.808,1.8052,1.8042,1.8031,1.8036,1.8024,1.802,1.8019,1.8017,1.8022,1.8034,1.8034,1.8031,1.8031,1.8031]}]]